Météo par heure à Essen

Ce jour, 1 Octobre, Jeudi

Heure Température Précipitation Vent Pression Humidité
00:00 +13°C° 0 mm 3 m/s 748 mmHg 81%
01:00 +13°C° 0 mm 3 m/s 748 mmHg 81%
02:00 +13°C° 0 mm 3 m/s 747 mmHg 81%
03:00 +13°C° 0 mm 3 m/s 746 mmHg 82%
04:00 +13°C° 0 mm 3 m/s 746 mmHg 82%
05:00 +13°C° 0 mm 3 m/s 745 mmHg 83%
06:00 +13°C° 0 mm 3 m/s 745 mmHg 84%
07:00 +14°C° 0 mm 4 m/s 744 mmHg 80%
08:00 +15°C° 0 mm 4 m/s 744 mmHg 76%
09:00 +17°C° 0 mm 4 m/s 743 mmHg 73%
10:00 +17°C° 0 mm 4 m/s 743 mmHg 69%
11:00 +18°C° 0 mm 4 m/s 743 mmHg 66%
12:00 +19°C° 0 mm 4 m/s 742 mmHg 62%
13:00 +17°C° 1 mm 5 m/s 742 mmHg 69%
14:00 +16°C° 1 mm 5 m/s 742 mmHg 75%
15:00 +15°C° 1 mm 5 m/s 741 mmHg 81%
16:00 +14°C° 0.3 mm 4 m/s 742 mmHg 81%
17:00 +14°C° 0.3 mm 3 m/s 742 mmHg 82%
18:00 +14°C° 0.3 mm 2 m/s 742 mmHg 82%
19:00 +14°C° 0 mm 2 m/s 742 mmHg 82%
20:00 +12°C° 0 mm 3 m/s 742 mmHg 83%
21:00 +12°C° 0 mm 3 m/s 743 mmHg 84%
22:00 +12°C° 0 mm 2 m/s 742 mmHg 84%
23:00 +12°C° 0 mm 2 m/s 742 mmHg 84%

Demain, 2 Octobre, Vendredi

Heure Température Précipitation Vent Pression Humidité
00:00 +12°C° 0 mm 2 m/s 742 mmHg 84%
01:00 +10°C° 0 mm 2 m/s 742 mmHg 84%
02:00 +10°C° 0 mm 2 m/s 741 mmHg 84%
03:00 +10°C° 0 mm 2 m/s 741 mmHg 84%
04:00 +10°C° 0 mm 2 m/s 741 mmHg 84%
05:00 +10°C° 0 mm 2 m/s 740 mmHg 83%
06:00 +10°C° 0 mm 3 m/s 740 mmHg 82%
07:00 +11°C° 0 mm 3 m/s 740 mmHg 78%
08:00 +12°C° 0 mm 4 m/s 740 mmHg 74%
09:00 +14°C° 0 mm 4 m/s 739 mmHg 70%
10:00 +15°C° 0 mm 4 m/s 739 mmHg 66%
11:00 +17°C° 0 mm 4 m/s 739 mmHg 62%
12:00 +19°C° 0 mm 4 m/s 739 mmHg 57%
13:00 +19°C° 0 mm 3 m/s 738 mmHg 58%
14:00 +19°C° 0 mm 3 m/s 738 mmHg 58%
15:00 +19°C° 0 mm 3 m/s 737 mmHg 59%
16:00 +18°C° 0 mm 3 m/s 737 mmHg 61%
17:00 +17°C° 0 mm 4 m/s 737 mmHg 63%
18:00 +17°C° 0 mm 4 m/s 737 mmHg 65%
19:00 +17°C° 0 mm 4 m/s 736 mmHg 68%
20:00 +17°C° 0 mm 4 m/s 736 mmHg 71%
21:00 +15°C° 0 mm 5 m/s 736 mmHg 73%
22:00 +15°C° 0 mm 5 m/s 735 mmHg 74%
23:00 +15°C° 0 mm 4 m/s 735 mmHg 75%

Après-demain, 3 Octobre, Samedi

Heure Température Précipitation Vent Pression Humidité
00:00 +15°C° 0 mm 4 m/s 734 mmHg 76%
01:00 +14°C° 0 mm 4 m/s 734 mmHg 78%
02:00 +14°C° 0 mm 4 m/s 734 mmHg 80%
03:00 +13°C° 0 mm 4 m/s 734 mmHg 82%
04:00 +13°C° 0 mm 3 m/s 734 mmHg 84%
05:00 +13°C° 0 mm 3 m/s 733 mmHg 85%
06:00 +14°C° 0 mm 2 m/s 733 mmHg 86%
07:00 +15°C° 0 mm 2 m/s 734 mmHg 82%
08:00 +16°C° 0 mm 3 m/s 734 mmHg 78%
09:00 +17°C° 0 mm 3 m/s 734 mmHg 74%
10:00 +16°C° 0 mm 3 m/s 734 mmHg 73%
11:00 +16°C° 0 mm 3 m/s 734 mmHg 73%
12:00 +16°C° 0 mm 3 m/s 734 mmHg 72%
13:00 +16°C° 0 mm 3 m/s 734 mmHg 71%
14:00 +14°C° 0 mm 3 m/s 734 mmHg 71%
15:00 +13°C° 0 mm 3 m/s 734 mmHg 70%
16:00 +13°C° 0 mm 3 m/s 734 mmHg 70%
17:00 +12°C° 0 mm 3 m/s 734 mmHg 69%
18:00 +12°C° 0 mm 3 m/s 734 mmHg 69%
19:00 +12°C° 0 mm 4 m/s 734 mmHg 68%
20:00 +12°C° 0 mm 4 m/s 734 mmHg 68%
21:00 +12°C° 0 mm 4 m/s 734 mmHg 67%
22:00 +12°C° 0 mm 5 m/s 734 mmHg 68%
23:00 +11°C° 0 mm 6 m/s 733 mmHg 69%

4 Octobre, Dimanche

Heure Température Précipitation Vent Pression Humidité
00:00 +11°C° 0 mm 6 m/s 733 mmHg 70%
01:00 +11°C° 0 mm 6 m/s 733 mmHg 71%
02:00 +11°C° 0 mm 6 m/s 733 mmHg 71%
03:00 +11°C° 0 mm 6 m/s 733 mmHg 72%
04:00 +11°C° 0.1 mm 7 m/s 733 mmHg 72%
05:00 +10°C° 0.1 mm 7 m/s 733 mmHg 72%
06:00 +10°C° 0.1 mm 7 m/s 733 mmHg 73%
07:00 +10°C° 0.3 mm 7 m/s 734 mmHg 71%
08:00 +10°C° 0.3 mm 8 m/s 734 mmHg 70%
09:00 +10°C° 0.3 mm 8 m/s 735 mmHg 69%
10:00 +11°C° 0 mm 8 m/s 736 mmHg 65%
11:00 +12°C° 0 mm 8 m/s 737 mmHg 61%
12:00 +12°C° 0 mm 8 m/s 738 mmHg 57%
13:00 +14°C° 0 mm 7 m/s 738 mmHg 56%
14:00 +14°C° 0 mm 7 m/s 738 mmHg 55%
15:00 +15°C° 0 mm 6 m/s 739 mmHg 54%
16:00 +14°C° 0 mm 6 m/s 739 mmHg 56%
17:00 +14°C° 0 mm 5 m/s 739 mmHg 59%
18:00 +13°C° 0 mm 5 m/s 739 mmHg 62%
19:00 +13°C° 0 mm 5 m/s 740 mmHg 63%
20:00 +13°C° 0 mm 5 m/s 740 mmHg 65%
21:00 +13°C° 0 mm 5 m/s 740 mmHg 66%
22:00 +12°C° 0 mm 5 m/s 740 mmHg 68%
23:00 +12°C° 0 mm 4 m/s 741 mmHg 69%

5 Octobre, Lundi

Heure Température Précipitation Vent Pression Humidité
00:00 +12°C° 0 mm 4 m/s 741 mmHg 70%
01:00 +11°C° 0 mm 4 m/s 741 mmHg 71%
02:00 +11°C° 0 mm 4 m/s 741 mmHg 71%
03:00 +11°C° 0 mm 4 m/s 741 mmHg 72%
04:00 +11°C° 0 mm 4 m/s 741 mmHg 73%
05:00 +11°C° 0 mm 4 m/s 741 mmHg 74%
06:00 +10°C° 0 mm 4 m/s 741 mmHg 75%
07:00 +10°C° 0 mm 5 m/s 741 mmHg 71%
08:00 +11°C° 0 mm 6 m/s 740 mmHg 66%
09:00 +13°C° 0 mm 6 m/s 740 mmHg 62%
10:00 +14°C° 0 mm 7 m/s 740 mmHg 59%
11:00 +14°C° 0 mm 7 m/s 739 mmHg 57%
12:00 +13°C° 0 mm 8 m/s 739 mmHg 54%
13:00 +12°C° 1 mm 8 m/s 739 mmHg 64%
14:00 +12°C° 1 mm 8 m/s 739 mmHg 73%
15:00 +11°C° 1 mm 7 m/s 739 mmHg 82%
16:00 +11°C° 0.6 mm 7 m/s 739 mmHg 82%
17:00 +11°C° 0.6 mm 6 m/s 739 mmHg 82%
18:00 +12°C° 0.6 mm 5 m/s 740 mmHg 83%
19:00 +12°C° 0 mm 5 m/s 740 mmHg 83%
20:00 +12°C° 0 mm 5 m/s 740 mmHg 84%
21:00 +12°C° 0 mm 4 m/s 740 mmHg 84%
22:00 +12°C° 0.5 mm 5 m/s 740 mmHg 85%
23:00 +12°C° 0.5 mm 5 m/s 740 mmHg 87%

6 Octobre, Mardi

Heure Température Précipitation Vent Pression Humidité
00:00 +12°C° 0.5 mm 5 m/s 740 mmHg 88%
01:00 +11°C° 0.5 mm 6 m/s 741 mmHg 87%
02:00 +11°C° 0.5 mm 6 m/s 741 mmHg 87%
03:00 +11°C° 0.5 mm 6 m/s 741 mmHg 87%
04:00 +11°C° 0.4 mm 6 m/s 742 mmHg 86%
05:00 +11°C° 0.4 mm 6 m/s 742 mmHg 84%
06:00 +11°C° 0.4 mm 6 m/s 743 mmHg 83%
07:00 +11°C° 0.2 mm 6 m/s 743 mmHg 83%
08:00 +11°C° 0.2 mm 6 m/s 743 mmHg 83%
09:00 +11°C° 0.2 mm 6 m/s 744 mmHg 83%
10:00 +11°C° 0.1 mm 6 m/s 744 mmHg 80%
11:00 +11°C° 0.1 mm 6 m/s 744 mmHg 77%
12:00 +13°C° 0.1 mm 6 m/s 744 mmHg 74%
13:00 +13°C° 0.1 mm 6 m/s 744 mmHg 73%
14:00 +13°C° 0.1 mm 5 m/s 744 mmHg 72%
15:00 +13°C° 0.1 mm 5 m/s 745 mmHg 70%
16:00 +12°C° 0 mm 5 m/s 745 mmHg 73%
17:00 +12°C° 0 mm 4 m/s 745 mmHg 75%
18:00 +12°C° 0 mm 4 m/s 745 mmHg 77%
19:00 +12°C° 0 mm 4 m/s 744 mmHg 77%
20:00 +12°C° 0 mm 4 m/s 744 mmHg 78%
21:00 +11°C° 0 mm 4 m/s 744 mmHg 79%
22:00 +11°C° 0.4 mm 4 m/s 744 mmHg 82%
23:00 +11°C° 0.4 mm 4 m/s 744 mmHg 85%
Voir plus

We Need Your Consent

Meteoprog and our Service Providers may store and access personal data such as cookies, device identifiers or other similar technologies on your device and process such data to personalise content and ads, as well as provide social media features and to analyse the traffic.

  • Store and/or access information on your device

    Cookies, device identifiers or other information can be stored or accessed on your device for the purposes indicated above.

  • Personalised ads and content, ad and content measurement, audience insights, and products development

    Ads and content can be personalised based on a profile. More data can be added to better personalise ads and content. Ad and content performance can be measured. Insights about the audience who saw the ads and content can be derived. Such data can be used to develop or improve user’s experience, systems and software.

By clicking ‘I Agree’ you will allow the use of indicated cookies, device identifiers, web beacons or other similar technologies. Your settings can be changed in the browser on your device.

For certain purposes, legitimate interests may be relied on, rather than consent. You can read more about this in our Privacy and Cookie Policy.